Wind_Speed
17 17 16 15 15 15 14 14 13 13 12 12 12 11 11 10 9 9 8 7 6 6 5 5 4 4 4 3 3 2 2 1 1 1 0 1 1 2 2 3 3 3 4
18 18 17 17 16 16 16 16 16 14 14 13 13 12 12 11 11 10 9 8 7 6 6 6 5 5 5 4 4 3 3 2 2 2 2 2 2 2 2 3 3 3 4
20 19 19 18 18 18 17 17 17 16 16 15 14 14 14 13 12 11 10 9 9 8 7 7 6 6 6 5 5 4 4 3 3 3 3 3 3 3 3 3 3 4 4
22 22 21 21 20 19 19 18 18 18 17 17 16 15 15 15 14 13 12 11 10 9 8 8 7 6 6 6 6 5 5 4 4 4 4 4 4 4 4 4 4 4 4
24 23 23 23 22 21 21 20 19 19 19 19 18 17 16 16 15 14 13 12 11 10 10 9 8 8 7 7 7 6 6 6 5 5 5 5 5 5 5 5 5 5 5
25 25 25 24 24 23 23 22 21 21 21 20 20 19 18 17 16 15 15 13 13 12 11 10 10 9 8 8 8 8 7 7 7 6 6 6 6 6 6 6 6 6 6
28 27 26 26 26 25 24 23 23 23 22 22 21 21 20 19 18 17 16 15 14 13 12 12 11 10 9 9 8 9 9 8 8 8 8 8 8 7 7 7 7 7 7
29 29 28 27 27 27 26 26 25 24 24 23 23 22 21 20 20 19 18 16 15 15 14 13 12 12 11 11 10 10 10 10 10 9 9 9 9 9 8 8 8 8 9
31 31 30 30 29 29 28 27 27 26 25 25 24 24 23 22 21 21 20 19 18 16 16 15 14 14 14 13 12 12 11 11 11 11 11 11 10 10 9 9 10 10 10
33 32 32 31 31 30 30 29 28 28 27 27 26 25 25 24 23 23 22 21 20 19 18 17 16 16 15 15 14 13 13 13 12 12 12 12 12 12 11 11 11 11 11
35 34 34 33 33 32 32 31 30 29 29 28 27 27 27 26 25 25 24 23 22 22 20 19 18 18 17 17 16 15 15 15 14 14 14 13 13 13 13 13 12 12 12
36 36 35 35 35 34 34 33 33 32 31 30 29 28 28 28 27 27 26 25 24 23 22 22 21 20 19 18 18 18 17 16 16 16 15 15 15 15 15 14 13 13 13
38 37 37 36 36 36 36 35 35 34 33 32 31 30 30 30 29 28 27 27 26 25 24 23 23 22 22 21 20 19 19 18 18 17 17 16 16 16 15 15 14 14 14
39 39 38 38 37 37 37 37 36 36 35 34 33 32 32 31 31 31 29 28 27 27 26 25 25 24 23 22 22 20 20 20 19 19 18 18 17 17 17 17 16 16 15
39 40 39 39 39 39 38 38 38 37 36 36 35 34 34 33 33 32 32 30 29 28 28 27 26 26 25 24 23 22 22 22 21 20 20 19 19 19 18 18 18 17 17
41 41 41 40 39 40 39 39 38 38 38 38 37 36 36 36 35 33 33 33 31 30 30 29 29 28 28 26 25 24 24 23 23 22 21 21 21 21 20 20 20 20 19
42 42 41 41 40 41 41 40 39 39 39 39 38 37 37 36 36 35 34 34 33 33 32 32 31 30 30 29 28 27 26 25 25 24 24 23 23 23 23 22 22 21 21
43 43 43 42 42 42 42 42 41 40 40 40 40 39 37 37 37 36 36 35 35 34 34 33 33 33 32 31 30 29 28 27 26 26 26 26 26 25 25 24 24 23 23
45 44 44 44 43 43 42 42 42 42 42 41 41 40 39 38 38 37 37 37 37 36 35 34 34 34 33 33 32 31 30 30 29 28 28 28 28 27 27 26 25 25 24
47 46 45 44 44 44 44 42 43 43 42 43 42 42 41 40 39 39 38 38 38 38 38 37 36 35 35 35 34 34 33 31 31 30 30 30 29 28 28 28 27 27 27
47 47 46 46 44 45 45 44 43 43 43 44 43 42 42 41 41 40 40 39 39 39 39 38 38 36 36 36 35 35 35 33 33 32 32 31 31 30 29 29 29 29 28
47 48 47 46 45 45 45 45 44 43 44 44 44 43 43 43 43 42 42 41 40 41 41 40 40 38 37 37 37 37 37 36 35 34 33 33 32 32 31 31 31 30 30
45 47 47 47 47 46 45 45 45 45 45 44 44 44 44 44 43 44 43 43 42 42 42 42 41 40 39 38 38 38 38 38 38 37 36 35 33 32 32 31 31 31 31
44 45 46 46 47 47 47 47 46 46 46 45 46 45 45 45 45 44 45 44 44 43 43 42 42 41 41 40 40 40 40 39 39 39 38 37 36 35 34 33 32 32 31
44 44 46 47 46 47 47 46 47 47 47 47 47 47 46 46 46 45 46 46 46 45 45 44 43 43 42 41 40 40 40 41 41 40 39 38 37 36 35 34 33 32 32
43 43 45 45 46 47 47 47 47 47 47 47 47 48 48 47 46 46 46 47 47 46 46 46 45 44 44 43 42 42 41 41 42 42 41 39 38 37 37 35 34 33 33
Wind_Direction
231 228 226 227 225 222 221 221 219 215 212 210 208 206 204 204 205 204 204 201 201 204 205 203 204 206 211 215 216 216 218 219 228 249 291 341 345 344 349 350 351 354 357
232 231 229 228 227 226 225 225 222 219 217 216 214 211 210 210 209 209 209 208 208 214 217 213 213 218 222 223 226 231 236 243 251 255 266 294 310 315 316 322 327 329 335
234 232 230 228 228 227 227 228 226 223 221 220 219 216 216 215 214 215 216 215 216 220 221 218 218 225 229 230 232 238 241 245 249 253 267 286 296 300 303 308 314 320 326
234 234 232 230 229 228 228 228 228 226 225 224 223 221 219 219 219 219 220 220 220 222 223 224 227 232 236 236 236 240 243 247 252 257 266 279 287 290 292 301 307 311 315
234 234 233 231 230 230 229 229 229 228 227 226 226 224 223 222 221 221 222 222 222 225 227 229 231 235 241 242 240 245 249 251 256 260 264 271 279 282 285 292 299 304 307
235 235 235 233 232 231 231 231 230 229 229 228 227 226 225 224 223 222 223 223 224 226 228 230 231 234 239 243 243 246 251 256 258 261 265 271 276 277 281 286 292 297 300
236 235 235 234 234 232 232 231 231 230 229 229 229 227 226 226 226 224 222 223 224 227 230 232 232 234 239 242 245 249 251 253 257 261 266 270 273 275 278 284 288 291 295
236 235 235 234 234 234 233 232 231 231 230 230 230 229 228 228 228 227 226 225 226 229 231 235 236 237 240 244 247 251 251 253 255 260 263 267 271 274 279 281 283 286 291
235 236 235 234 234 234 233 233 232 232 232 231 230 230 229 229 229 229 230 229 229 231 232 235 239 241 243 246 250 252 255 255 257 260 261 265 269 272 277 280 282 284 287
234 235 236 235 235 234 234 233 233 233 233 232 231 231 231 231 231 231 232 232 233 233 234 237 240 243 245 247 250 253 256 256 258 260 262 264 267 269 273 276 281 283 284
234 235 235 235 235 235 234 234 234 233 234 234 233 233 233 234 233 234 235 235 235 235 237 240 243 245 247 249 250 253 256 257 257 260 263 265 265 267 271 275 280 281 282
234 235 235 236 235 235 235 235 235 235 235 235 235 234 234 235 236 236 236 236 236 238 240 241 244 246 248 250 251 253 254 255 256 260 263 263 264 267 271 274 278 280 281
234 234 235 235 235 235 235 235 236 235 236 236 236 235 236 236 236 237 238 238 238 239 241 243 245 246 247 249 251 253 254 255 256 259 260 262 263 265 268 272 276 279 281
234 234 234 235 235 234 234 234 235 235 236 237 237 237 237 236 237 237 239 239 239 240 242 244 245 246 247 248 249 251 254 256 257 258 259 261 263 265 268 271 274 276 279
234 233 234 235 236 235 234 234 234 234 235 237 237 238 238 239 239 239 238 239 240 240 242 243 244 246 246 248 249 251 253 256 257 257 257 259 263 265 268 270 272 274 277
235 234 235 236 235 234 233 233 233 233 234 235 237 238 238 239 239 239 240 239 240 240 242 244 245 246 247 248 250 252 253 256 256 256 257 259 262 264 267 269 271 272 275
235 234 234 235 235 236 235 235 235 234 234 236 237 238 239 240 239 239 239 240 241 241 242 244 245 246 247 248 250 252 253 255 255 256 256 258 261 263 266 268 270 271 271
234 235 234 235 236 236 236 236 236 235 236 237 238 239 239 239 240 240 240 240 241 242 242 244 245 246 247 249 250 251 252 253 254 255 256 258 261 264 265 266 268 270 271
233 234 235 235 235 235 235 235 235 236 237 238 238 239 239 240 240 240 240 241 242 242 243 244 245 247 247 248 249 250 251 253 254 255 257 259 261 263 264 265 266 268 270
232 233 234 235 235 236 236 235 235 236 237 239 240 240 240 241 241 241 240 241 243 244 245 246 246 246 248 249 249 250 251 252 253 255 256 259 261 262 264 265 266 267 268
232 232 233 233 234 236 237 236 236 236 238 239 240 241 241 241 241 243 243 243 245 245 246 247 247 247 249 250 250 251 251 252 253 254 256 258 260 262 264 265 265 266 268
232 232 232 234 234 236 238 237 237 237 238 239 241 242 242 243 243 243 244 246 247 247 246 247 248 248 249 250 251 252 253 253 253 254 255 258 259 261 263 264 265 265 266
233 233 233 234 235 235 237 239 238 238 238 239 241 241 242 243 244 245 245 245 247 248 248 247 248 249 249 250 251 253 253 253 253 254 255 257 258 260 262 263 264 264 265
233 233 233 235 236 236 237 239 240 239 239 240 241 243 243 244 245 246 246 246 247 247 247 246 247 248 249 250 251 252 253 253 253 253 255 256 258 259 260 262 263 264 265
234 235 234 234 235 236 237 239 241 241 241 241 242 242 244 245 245 245 246 245 246 246 246 246 247 247 247 248 249 250 251 252 253 254 255 255 256 257 258 260 262 263 264
236 236 235 234 235 237 238 239 240 241 242 243 243 242 243 245 245 246 246 245 246 246 247 247 247 247 248 248 248 249 251 251 253 254 254 255 255 256 256 259 261 263 263
Height
5847 5847 5849 5850 5851 5852 5853 5854 5855 5856 5857 5858 5859 5860 5861 5861 5862 5863 5863 5864 5864 5865 5865 5865 5865 5866 5866 5866 5866 5866 5866 5866 5866 5866 5865 5865 5865 5864 5864 5863 5863 5862 5861
5843 5845 5846 5847 5848 5849 5850 5851 5853 5854 5855 5856 5857 5858 5859 5860 5861 5862 5862 5862 5863 5864 5864 5864 5865 5865 5865 5865 5866 5866 5866 5865 5865 5865 5865 5865 5864 5864 5864 5863 5862 5862 5861
5840 5842 5843 5844 5846 5847 5848 5849 5850 5852 5853 5854 5855 5856 5857 5858 5859 5860 5861 5861 5862 5862 5863 5863 5864 5864 5864 5864 5865 5865 5865 5865 5865 5865 5865 5864 5864 5863 5863 5862 5862 5861 5861
5837 5838 5839 5841 5842 5844 5845 5846 5848 5849 5850 5852 5853 5854 5855 5856 5857 5858 5859 5859 5860 5861 5862 5862 5862 5863 5863 5863 5863 5864 5864 5864 5864 5864 5864 5863 5863 5863 5862 5862 5861 5861 5860
5833 5834 5836 5837 5839 5840 5842 5843 5845 5846 5847 5849 5850 5851 5852 5854 5855 5856 5857 5857 5858 5859 5860 5860 5861 5861 5862 5862 5862 5862 5863 5863 5863 5863 5862 5862 5862 5862 5861 5861 5860 5860 5859
5828 5829 5831 5833 5835 5836 5838 5839 5841 5843 5844 5846 5847 5848 5850 5851 5852 5853 5854 5855 5856 5857 5858 5859 5859 5860 5860 5861 5861 5861 5861 5861 5861 5861 5861 5861 5861 5861 5860 5860 5859 5859 5858
5822 5824 5826 5828 5830 5832 5834 5835 5837 5839 5840 5842 5843 5845 5847 5848 5849 5850 5851 5853 5854 5855 5856 5856 5857 5858 5858 5859 5859 5859 5860 5860 5860 5860 5860 5860 5860 5859 5859 5859 5858 5857 5857
5816 5818 5820 5823 5825 5827 5829 5831 5833 5835 5836 5838 5840 5841 5843 5845 5846 5847 5849 5850 5851 5852 5853 5854 5855 5856 5856 5857 5857 5857 5858 5858 5858 5858 5858 5858 5858 5858 5857 5857 5856 5856 5855
5809 5812 5814 5817 5819 5821 5823 5826 5828 5830 5832 5834 5835 5837 5839 5841 5842 5844 5845 5847 5848 5849 5850 5851 5852 5853 5854 5854 5855 5855 5855 5856 5856 5856 5856 5856 5856 5856 5855 5855 5854 5854 5853
5803 5805 5808 5811 5813 5815 5818 5820 5823 5825 5827 5829 5831 5833 5835 5837 5838 5840 5841 5843 5844 5846 5847 5848 5849 5850 5851 5851 5852 5852 5853 5853 5853 5853 5853 5853 5853 5853 5853 5853 5852 5852 5851
5796 5798 5801 5804 5807 5809 5812 5814 5817 5819 5821 5823 5825 5828 5830 5832 5834 5835 5837 5839 5840 5842 5843 5844 5846 5847 5847 5848 5849 5849 5850 5850 5850 5851 5851 5851 5851 5851 5850 5850 5850 5849 5848
5788 5791 5794 5796 5800 5802 5805 5808 5810 5813 5815 5817 5820 5822 5824 5826 5828 5830 5832 5834 5836 5837 5839 5840 5841 5842 5843 5844 5845 5846 5846 5847 5847 5847 5848 5848 5848 5848 5848 5847 5847 5846 5846
5779 5783 5786 5789 5792 5795 5798 5801 5804 5806 5809 5811 5813 5816 5818 5820 5823 5825 5827 5829 5831 5832 5834 5835 5837 5838 5839 5840 5841 5842 5842 5843 5843 5844 5844 5844 5845 5844 5844 5844 5844 5843 5843
5770 5774 5777 5781 5784 5787 5790 5793 5796 5799 5802 5804 5807 5809 5811 5814 5816 5819 5821 5823 5825 5827 5829 5830 5832 5833 5834 5835 5836 5837 5838 5839 5839 5840 5840 5841 5841 5841 5841 5841 5841 5840 5840
5761 5765 5769 5772 5775 5778 5782 5785 5788 5791 5794 5797 5800 5802 5804 5807 5809 5812 5814 5817 5819 5821 5823 5825 5826 5828 5829 5830 5832 5833 5833 5834 5835 5836 5836 5836 5837 5837 5837 5837 5837 5836 5836
5752 5755 5759 5762 5765 5769 5773 5776 5780 5783 5786 5789 5792 5794 5797 5799 5802 5805 5807 5810 5813 5815 5817 5818 5820 5822 5823 5825 5826 5827 5828 5829 5830 5831 5831 5832 5832 5832 5833 5832 5832 5832 5832
5742 5746 5750 5753 5756 5759 5764 5767 5771 5774 5777 5781 5784 5786 5789 5791 5794 5797 5800 5803 5805 5808 5810 5812 5814 5815 5817 5819 5820 5822 5823 5824 5825 5826 5826 5827 5827 5828 5828 5828 5828 5828 5827
5731 5735 5740 5743 5747 5750 5754 5758 5762 5765 5769 5772 5775 5778 5781 5783 5786 5789 5792 5795 5798 5800 5802 5805 5806 5808 5810 5812 5814 5815 5816 5818 5819 5820 5821 5821 5822 5822 5822 5823 5823 5822 5822
5721 5725 5729 5733 5737 5741 5744 5749 5753 5756 5760 5763 5766 5769 5772 5775 5778 5781 5783 5786 5789 5792 5794 5797 5799 5801 5803 5805 5807 5808 5810 5811 5812 5813 5814 5815 5815 5816 5816 5817 5817 5817 5817
5709 5714 5719 5722 5727 5731 5734 5739 5743 5747 5750 5754 5757 5760 5764 5766 5769 5772 5774 5777 5780 5783 5786 5788 5791 5793 5795 5797 5799 5801 5802 5803 5805 5806 5807 5808 5809 5809 5810 5810 5811 5811 5811
5698 5702 5708 5713 5717 5721 5725 5729 5734 5738 5741 5744 5748 5751 5754 5757 5760 5763 5766 5768 5771 5774 5777 5780 5782 5784 5787 5788 5791 5792 5794 5795 5797 5799 5800 5801 5802 5802 5803 5804 5804 5804 5804
5687 5692 5697 5702 5707 5711 5715 5720 5724 5728 5731 5735 5738 5741 5744 5747 5750 5753 5757 5759 5762 5764 5767 5770 5773 5775 5778 5780 5782 5784 5786 5788 5789 5791 5792 5793 5794 5795 5796 5797 5797 5797 5798
5676 5681 5686 5692 5696 5701 5705 5709 5713 5717 5721 5724 5728 5731 5734 5737 5740 5743 5746 5749 5752 5755 5757 5760 5763 5766 5768 5770 5772 5774 5776 5778 5780 5782 5783 5785 5786 5787 5788 5789 5789 5790 5790
5667 5671 5676 5681 5685 5690 5695 5699 5703 5707 5711 5715 5718 5721 5723 5727 5730 5733 5736 5739 5742 5744 5747 5750 5753 5756 5758 5761 5762 5764 5766 5768 5770 5773 5775 5776 5777 5779 5780 5781 5782 5782 5782
5657 5660 5665 5670 5674 5679 5684 5688 5693 5697 5700 5704 5707 5711 5713 5716 5719 5723 5725 5728 5731 5734 5737 5740 5742 5745 5748 5750 5752 5754 5756 5758 5760 5762 5765 5767 5768 5770 5771 5772 5773 5774 5774
5646 5649 5654 5659 5664 5669 5673 5678 5682 5686 5689 5693 5696 5700 5703 5705 5709 5711 5714 5717 5720 5723 5726 5729 5732 5734 5737 5740 5742 5744 5746 5748 5750 5752 5755 5756 5758 5760 5761 5763 5764 5765 5766